Time,TemperatureF,DewpointF,PressureIn,WindDirection,WindDirectionDegrees,WindSpeedMPH,WindSpeedGustMPH,Humidity,HourlyPrecipIn,Conditions,Clouds,dailyrainin,SoftwareType,DateUTC
2013-08-12 00:00:00,71.0,62.0,30.02,South,177,1.0,4.0,72,0.00,,,-99.99,,2013-08-12 04:00:00,
2013-08-12 00:33:00,71.0,62.0,30.02,South,177,1.0,4.0,72,0.00,,,-99.99,,2013-08-12 04:33:00,
2013-08-12 00:43:00,71.0,62.0,30.02,South,177,1.0,4.0,72,0.00,,,-99.99,,2013-08-12 04:43:00,
2013-08-12 00:52:00,71.0,62.0,30.02,South,177,1.0,4.0,72,0.00,,,-99.99,,2013-08-12 04:52:00,
2013-08-12 01:00:00,71.0,64.0,30.02,South,172,0.0,4.0,77,0.00,,,-99.99,,2013-08-12 05:00:00,
2013-08-12 01:32:00,71.0,64.0,30.02,South,172,0.0,4.0,77,0.00,,,-99.99,,2013-08-12 05:32:00,
2013-08-12 01:43:00,71.0,64.0,30.02,South,172,0.0,4.0,77,0.00,,,-99.99,,2013-08-12 05:43:00,
2013-08-12 01:52:00,71.0,64.0,30.02,South,172,0.0,4.0,77,0.00,,,-99.99,,2013-08-12 05:52:00,
2013-08-12 02:00:00,71.0,66.0,30.01,WSW,250,0.0,5.0,84,0.00,,,-99.99,,2013-08-12 06:00:00,
2013-08-12 02:32:00,71.0,66.0,30.01,WSW,250,0.0,5.0,84,0.00,,,-99.99,,2013-08-12 06:32:00,
2013-08-12 02:42:00,71.0,66.0,30.01,WSW,250,0.0,5.0,84,0.00,,,-99.99,,2013-08-12 06:42:00,
2013-08-12 02:52:00,71.0,66.0,30.01,WSW,250,0.0,5.0,84,0.00,,,-99.99,,2013-08-12 06:52:00,
2013-08-12 03:00:00,69.0,66.0,30.01,South,184,0.0,4.0,91,0.04,,,-99.99,,2013-08-12 07:00:00,
2013-08-12 03:33:00,69.0,66.0,30.01,South,184,0.0,4.0,91,0.04,,,-99.99,,2013-08-12 07:33:00,
2013-08-12 03:43:00,69.0,66.0,30.01,South,184,0.0,4.0,91,0.04,,,-99.99,,2013-08-12 07:43:00,
2013-08-12 03:53:00,69.0,66.0,30.01,South,184,0.0,4.0,91,0.04,,,-99.99,,2013-08-12 07:53:00,
2013-08-12 04:00:00,69.0,66.0,30.00,SE,146,0.0,0.0,92,0.00,,,-99.99,,2013-08-12 08:00:00,
2013-08-12 04:33:00,69.0,66.0,30.00,SE,146,0.0,0.0,92,0.00,,,-99.99,,2013-08-12 08:33:00,
2013-08-12 04:43:00,69.0,66.0,30.00,SE,146,0.0,0.0,92,0.00,,,-99.99,,2013-08-12 08:43:00,
2013-08-12 04:53:00,69.0,66.0,30.00,SE,146,0.0,0.0,92,0.00,,,-99.99,,2013-08-12 08:53:00,
2013-08-12 05:00:00,68.0,66.0,29.99,NW,305,0.0,0.0,93,0.00,,,-99.99,,2013-08-12 09:00:00,
2013-08-12 05:32:00,68.0,66.0,29.99,NW,305,0.0,0.0,93,0.00,,,-99.99,,2013-08-12 09:32:00,
2013-08-12 05:43:00,68.0,66.0,29.99,NW,305,0.0,0.0,93,0.00,,,-99.99,,2013-08-12 09:43:00,
2013-08-12 05:53:00,68.0,66.0,29.99,NW,305,0.0,0.0,93,0.00,,,-99.99,,2013-08-12 09:53:00,
2013-08-12 06:00:00,68.0,66.0,30.00,ENE,59,0.0,0.0,92,0.00,,,-99.99,,2013-08-12 10:00:00,
2013-08-12 06:32:00,68.0,66.0,30.00,ENE,59,0.0,0.0,92,0.00,,,-99.99,,2013-08-12 10:32:00,
2013-08-12 06:43:00,68.0,66.0,30.00,ENE,59,0.0,0.0,92,0.00,,,-99.99,,2013-08-12 10:43:00,
2013-08-12 06:52:00,68.0,66.0,30.00,ENE,59,0.0,0.0,92,0.00,,,-99.99,,2013-08-12 10:52:00,
2013-08-12 07:00:00,68.0,66.0,30.01,SSE,167,0.0,4.0,92,0.01,,,-99.99,,2013-08-12 11:00:00,
2013-08-12 07:32:00,68.0,66.0,30.01,SSE,167,0.0,4.0,92,0.01,,,-99.99,,2013-08-12 11:32:00,
2013-08-12 07:43:00,68.0,66.0,30.01,SSE,167,0.0,4.0,92,0.01,,,-99.99,,2013-08-12 11:43:00,
2013-08-12 07:53:00,68.0,66.0,30.01,SSE,167,0.0,4.0,92,0.01,,,-99.99,,2013-08-12 11:53:00,
2013-08-12 08:00:00,68.0,65.0,30.02,ENE,66,0.0,4.0,92,0.00,,,-99.99,,2013-08-12 12:00:00,
2013-08-12 08:32:00,68.0,65.0,30.02,ENE,66,0.0,4.0,92,0.00,,,-99.99,,2013-08-12 12:32:00,
2013-08-12 08:43:00,68.0,65.0,30.02,ENE,66,0.0,4.0,92,0.00,,,-99.99,,2013-08-12 12:43:00,
2013-08-12 08:52:00,68.0,65.0,30.02,ENE,66,0.0,4.0,92,0.00,,,-99.99,,2013-08-12 12:52:00,
2013-08-12 09:00:00,70.0,66.0,30.01,NE,46,0.0,5.0,87,0.00,,,-99.99,,2013-08-12 13:00:00,
2013-08-12 09:43:00,70.0,66.0,30.01,NE,46,0.0,5.0,87,0.00,,,-99.99,,2013-08-12 13:43:00,
2013-08-12 09:53:00,70.0,66.0,30.01,NE,46,0.0,5.0,87,0.00,,,-99.99,,2013-08-12 13:53:00,
2013-08-12 10:00:00,70.0,66.0,30.02,NE,37,0.0,0.0,87,0.00,,,-99.99,,2013-08-12 14:00:00,
2013-08-12 10:32:00,70.0,66.0,30.02,NE,37,0.0,0.0,87,0.00,,,-99.99,,2013-08-12 14:32:00,
2013-08-12 10:42:00,70.0,66.0,30.02,NE,37,0.0,0.0,87,0.00,,,-99.99,,2013-08-12 14:42:00,
2013-08-12 10:53:00,70.0,66.0,30.02,NE,37,0.0,0.0,87,0.00,,,-99.99,,2013-08-12 14:53:00,
2013-08-12 11:00:00,72.0,66.0,30.01,NE,34,0.0,0.0,81,0.00,,,-99.99,,2013-08-12 15:00:00,
2013-08-12 11:33:00,72.0,66.0,30.01,NE,34,0.0,0.0,81,0.00,,,-99.99,,2013-08-12 15:33:00,
2013-08-12 11:43:00,72.0,66.0,30.01,NE,34,0.0,0.0,81,0.00,,,-99.99,,2013-08-12 15:43:00,
2013-08-12 11:52:00,72.0,66.0,30.01,NE,34,0.0,0.0,81,0.00,,,-99.99,,2013-08-12 15:52:00,
2013-08-12 12:00:00,74.0,63.0,30.01,East,88,3.0,6.0,68,0.00,,,-99.99,,2013-08-12 16:00:00,
2013-08-12 12:33:00,74.0,63.0,30.01,East,88,3.0,6.0,68,0.00,,,-99.99,,2013-08-12 16:33:00,
2013-08-12 12:43:00,74.0,63.0,30.01,East,88,3.0,6.0,68,0.00,,,-99.99,,2013-08-12 16:43:00,
2013-08-12 12:53:00,74.0,63.0,30.01,East,88,3.0,6.0,68,0.00,,,-99.99,,2013-08-12 16:53:00,
2013-08-12 13:00:00,78.0,59.0,30.00,East,94,4.0,8.0,51,0.00,,,-99.99,,2013-08-12 17:00:00,
2013-08-12 13:43:00,78.0,59.0,30.00,East,94,4.0,8.0,51,0.00,,,-99.99,,2013-08-12 17:43:00,
2013-08-12 13:52:00,78.0,59.0,30.00,East,94,4.0,8.0,51,0.00,,,-99.99,,2013-08-12 17:52:00,
2013-08-12 14:00:00,78.0,57.0,29.99,NE,43,0.0,9.0,48,0.00,,,-99.99,,2013-08-12 18:00:00,
2013-08-12 14:43:00,78.0,57.0,29.99,NE,43,0.0,9.0,48,0.00,,,-99.99,,2013-08-12 18:43:00,
2013-08-12 14:52:00,78.0,57.0,29.99,NE,43,0.0,9.0,48,0.00,,,-99.99,,2013-08-12 18:52:00,
2013-08-12 15:00:00,81.0,57.0,29.98,NNE,20,4.0,6.0,44,0.00,,,-99.99,,2013-08-12 19:00:00,
2013-08-12 15:33:00,81.0,57.0,29.98,NNE,20,4.0,6.0,44,0.00,,,-99.99,,2013-08-12 19:33:00,
2013-08-12 15:43:00,81.0,57.0,29.98,NNE,20,4.0,6.0,44,0.00,,,-99.99,,2013-08-12 19:43:00,
2013-08-12 15:52:00,81.0,57.0,29.98,NNE,20,4.0,6.0,44,0.00,,,-99.99,,2013-08-12 19:52:00,
2013-08-12 16:00:00,82.0,57.0,29.96,NNE,22,3.0,6.0,42,0.00,,,-99.99,,2013-08-12 20:00:00,
2013-08-12 16:32:00,82.0,57.0,29.96,NNE,22,3.0,6.0,42,0.00,,,-99.99,,2013-08-12 20:32:00,
2013-08-12 16:42:00,82.0,57.0,29.96,NNE,22,3.0,6.0,42,0.00,,,-99.99,,2013-08-12 20:42:00,
2013-08-12 16:52:00,82.0,57.0,29.96,NNE,22,3.0,6.0,42,0.00,,,-99.99,,2013-08-12 20:52:00,
2013-08-12 17:00:00,82.0,56.0,29.95,North,8,0.0,4.0,40,0.00,,,-99.99,,2013-08-12 21:00:00,
2013-08-12 17:43:00,82.0,56.0,29.95,North,8,0.0,4.0,40,0.00,,,-99.99,,2013-08-12 21:43:00,
2013-08-12 17:52:00,82.0,56.0,29.95,North,8,0.0,4.0,40,0.00,,,-99.99,,2013-08-12 21:52:00,
2013-08-12 18:00:00,83.0,55.0,29.94,West,265,0.0,5.0,39,0.00,,,-99.99,,2013-08-12 22:00:00,
2013-08-12 18:32:00,83.0,55.0,29.94,West,265,0.0,5.0,39,0.00,,,-99.99,,2013-08-12 22:32:00,
2013-08-12 18:43:00,83.0,55.0,29.94,West,265,0.0,5.0,39,0.00,,,-99.99,,2013-08-12 22:43:00,
2013-08-12 18:53:00,83.0,55.0,29.94,West,265,0.0,5.0,39,0.00,,,-99.99,,2013-08-12 22:53:00,
2013-08-12 19:00:00,81.0,61.0,29.93,West,276,0.0,6.0,50,0.00,,,-99.99,,2013-08-12 23:00:00,
2013-08-12 19:43:00,81.0,61.0,29.93,West,276,0.0,6.0,50,0.00,,,-99.99,,2013-08-12 23:43:00,
2013-08-12 19:54:00,81.0,61.0,29.93,West,276,0.0,6.0,50,0.00,,,-99.99,,2013-08-12 23:54:00,
2013-08-12 20:00:00,75.0,63.0,29.92,SE,126,4.0,7.0,67,0.00,,,-99.99,,2013-08-13 00:00:00,
2013-08-12 20:45:00,75.0,63.0,29.92,SE,126,4.0,7.0,67,0.00,,,-99.99,,2013-08-13 00:45:00,
2013-08-12 20:54:00,75.0,63.0,29.92,SE,126,4.0,7.0,67,0.00,,,-99.99,,2013-08-13 00:54:00,
2013-08-12 21:00:00,73.0,66.0,29.92,SSW,203,0.0,8.0,78,0.00,,,-99.99,,2013-08-13 01:00:00,
2013-08-12 21:42:00,73.0,66.0,29.92,SSW,203,0.0,8.0,78,0.00,,,-99.99,,2013-08-13 01:42:00,
2013-08-12 21:55:00,73.0,66.0,29.92,SSW,203,0.0,8.0,78,0.00,,,-99.99,,2013-08-13 01:55:00,
2013-08-12 22:00:00,71.0,66.0,29.92,South,181,0.0,0.0,84,0.00,,,-99.99,,2013-08-13 02:00:00,
2013-08-12 22:43:00,71.0,66.0,29.92,South,181,0.0,0.0,84,0.00,,,-99.99,,2013-08-13 02:43:00,
2013-08-12 22:52:00,71.0,66.0,29.92,South,181,0.0,0.0,84,0.00,,,-99.99,,2013-08-13 02:52:00,
2013-08-12 23:00:00,70.0,66.0,29.93,South,174,0.0,4.0,86,0.00,,,-99.99,,2013-08-13 03:00:00,
2013-08-12 23:43:00,70.0,66.0,29.93,South,174,0.0,4.0,86,0.00,,,-99.99,,2013-08-13 03:43:00,
2013-08-12 23:54:00,70.0,66.0,29.93,South,174,0.0,4.0,86,0.00,,,-99.99,,2013-08-13 03:54:00,